Simultaneous Nadir Overpasses (SNOs) Predictions

Prediction of SNOs between METOP-B and NOAA-19 Satellite Orbit:

Table of predicted SNOs for the next 14.0 days since TLE Epoch: 3/16/2017
Index Date (METOP-B) Time (METOP-B) Lat,Lon (METOP-B) SZA (METOP-B ) Date (NOAA-19) Time (NOAA-19) Lat,Lon (NOAA-19) SZA (NOAA-19 ) Distance(km) Time Diff (sec)
1 03/20/2017 14:44:50 -77.00, 142.89 103.14 03/20/2017 14:43:36 -77.01, 142.41 103.13 11.99 74
2 03/20/2017 15:35:32 76.93, -50.09 76.77 03/20/2017 15:34:41 76.94, -50.02 76.78 2.04 51
3 03/20/2017 16:26:13 -76.94, 117.30 103.23 03/20/2017 16:25:36 -76.94, 117.22 103.23 1.95 37
4 03/20/2017 17:16:54 76.91, -75.50 76.73 03/20/2017 17:16:42 76.91, -75.40 76.73 2.70 12
5 03/20/2017 18:07:35 -76.92, 91.89 103.28 03/20/2017 18:07:37 -76.91, 91.85 103.29 1.58 2
6 03/20/2017 18:58:16 76.89,-100.92 76.68 03/20/2017 18:58:44 76.92,-100.96 76.71 3.50 28
7 03/20/2017 19:48:57 -76.91, 66.47 103.32 03/20/2017 19:49:38 -76.88, 66.47 103.34 2.42 41
8 03/20/2017 20:39:38 76.87,-126.33 76.63 03/20/2017 20:40:45 76.89,-126.34 76.66 2.16 67
9 03/20/2017 21:30:25 -76.62, 40.03 103.64 03/20/2017 21:31:35 -76.69, 41.81 103.56 46.23 70




NCC Satellite Simultaneous Nadir Overpasses (SNOs) Prediction Service
